STARLINK-11407 [DTC]

Last updated on Thu Nov 21 2024 00:02:06 GMT+0000 (Coordinated Universal Time)

1 61939U 24209A 24325.66668981 -.00926759 00000+0 -35673-2 0 9996 2 61939 53.1666 191.9172 0000501 72.7679 310.6065 15.88727070 2188
UTC large
Height (km)
Speed (km/s)
/
Latitude / Longitude
Inclination (degrees)
Orbital Period (minutes)
Azimuth
Elevation
Range (km)
Doppler Factor

Next 0 passes for location: London (51.5072 / 0.1276)

Sorry there are no passes over London.